Wind_Speed
4 3 4 6 7 8 6 3 2 2 3 4 6 6 7 8 5 5 8 5 5 6 3 3 4 5 5 7 8 7 9 14 15 12 10 9 9 11 11 11 11 9 9 12 19 22 23 25 26 24 24 29 29 25 24 24 24 24 23 23 24 23 23 22 22 21 19 19 18 17 18 17 17 16 17 16 14 13 12 12 12 11 11 9 10 9
4 5 7 9 9 9 7 3 2 4 5 5 5 5 7 7 6 4 6 2 6 6 2 5 3 5 5 2 5 4 8 12 15 14 13 12 10 10 12 13 12 10 9 12 16 19 23 26 25 24 27 30 29 27 26 26 26 25 24 24 23 23 24 23 22 20 19 19 18 17 17 18 17 14 13 12 11 11 10 11 11 10 10 9 9 10
4 6 9 11 9 6 3 3 5 5 5 4 4 5 6 5 5 6 5 5 7 4 3 7 6 6 6 5 5 3 6 8 14 16 15 14 11 9 11 12 12 10 10 12 14 15 20 24 23 23 26 29 30 29 26 26 26 25 24 23 23 24 23 21 19 19 19 18 18 18 19 21 19 15 14 14 13 12 11 12 12 11 11 11 11 10
4 7 11 11 8 5 1 4 6 5 4 2 2 3 5 6 3 4 4 4 5 2 1 4 5 6 6 7 7 4 3 6 12 16 15 14 14 13 12 12 13 12 11 12 13 11 15 20 20 22 24 25 28 29 26 27 27 25 25 24 23 23 22 20 19 21 20 18 20 22 22 23 22 20 18 17 15 14 15 14 13 12 12 13 14 13
7 7 5 5 7 6 4 3 2 2 3 4 4 3 5 8 3 1 3 3 5 4 2 4 5 5 6 5 6 6 2 7 9 13 13 11 12 13 11 11 13 12 12 14 13 11 12 15 17 22 24 23 25 27 27 27 28 26 25 24 23 22 21 20 21 22 22 23 26 26 25 24 23 22 20 18 17 16 16 15 13 12 11 11 13 14
9 7 4 6 3 3 5 2 2 3 1 4 4 6 7 8 7 3 2 3 5 5 3 4 4 5 7 5 7 6 2 6 6 8 9 7 9 13 11 10 11 10 11 13 14 12 11 13 16 20 23 22 22 25 27 27 27 26 25 24 23 21 21 21 22 22 22 24 27 26 26 25 23 22 20 19 20 18 16 15 14 13 11 10 11 12
5 4 5 7 3 2 3 0 3 3 1 3 4 5 5 6 8 6 2 3 3 2 4 5 5 3 6 6 8 6 2 5 5 6 6 5 9 12 11 10 10 9 9 10 12 12 12 14 16 17 22 24 22 23 27 28 27 26 25 24 23 21 21 23 22 22 22 23 23 23 23 24 24 22 20 20 20 18 16 16 15 14 14 13 13 11
1 4 4 5 4 0 1 2 5 5 4 3 5 5 5 5 6 4 2 1 3 3 3 2 6 2 4 6 7 5 3 4 4 6 6 7 11 13 12 12 12 12 12 12 11 12 13 15 18 20 24 28 26 24 25 27 26 25 26 25 23 21 21 23 23 22 22 22 22 22 22 23 23 23 22 22 20 18 17 18 17 15 15 13 13 12
3 5 4 4 4 2 3 4 6 5 4 5 6 4 2 4 7 7 4 3 2 1 3 4 1 1 4 6 6 6 4 2 6 5 5 6 8 13 16 15 15 14 13 12 12 12 12 16 22 25 27 29 29 26 24 26 26 24 25 26 23 22 22 22 23 22 23 23 23 23 24 24 24 23 23 22 20 18 17 19 18 15 15 13 12 12
4 5 6 5 4 3 4 6 7 6 6 5 4 1 3 3 5 6 5 3 3 4 2 6 1 0 3 6 4 4 3 4 6 5 7 4 3 9 13 12 11 9 9 11 12 13 15 21 25 26 27 26 27 27 24 24 25 24 25 26 23 23 24 23 23 24 24 24 25 25 25 27 27 25 23 22 21 19 19 19 17 15 16 15 13 12
4 2 4 3 4 3 3 4 6 7 5 3 2 2 4 2 3 4 3 1 4 2 5 6 4 2 3 5 3 1 3 6 5 3 6 6 6 8 10 10 11 9 8 10 11 11 14 18 21 23 24 24 24 25 25 23 24 25 26 26 23 23 26 25 24 26 26 26 27 25 26 29 28 26 25 24 23 21 19 19 17 16 16 15 13 12
5 1 2 2 4 3 2 4 5 6 3 3 3 3 4 4 3 2 3 4 3 3 5 4 4 3 2 4 5 3 3 4 6 4 6 9 9 8 8 9 10 8 6 6 7 7 8 10 13 17 20 21 22 23 24 23 24 25 25 27 24 21 25 28 27 27 28 29 27 25 27 29 27 26 26 25 24 22 20 18 17 17 15 13 12 11
6 4 3 2 4 4 2 2 5 7 3 2 2 3 3 3 4 3 3 2 1 5 4 3 5 2 4 5 5 4 2 4 5 5 8 11 9 7 8 10 10 10 9 7 6 5 5 5 8 13 16 18 21 23 23 23 25 26 25 27 26 21 23 28 30 30 30 30 27 25 27 27 25 26 25 24 24 22 20 20 19 17 14 13 12 10
4 5 4 1 2 4 3 2 1 4 2 3 4 3 3 2 1 1 2 1 1 4 3 3 4 3 3 3 5 5 1 6 7 7 8 10 9 8 9 11 12 11 10 8 8 7 5 4 3 9 16 19 21 23 24 25 26 26 27 28 27 23 22 26 30 30 29 31 27 23 26 27 25 26 23 22 23 21 19 19 17 15 14 12 11 10
2 5 3 1 1 5 5 4 6 4 3 3 4 5 5 4 3 2 2 1 2 3 3 2 2 3 2 3 7 6 3 8 11 9 8 8 9 10 11 11 11 10 9 8 7 6 5 6 8 3 11 19 20 22 24 25 24 24 26 28 28 27 25 24 28 30 27 29 26 21 25 27 25 25 22 20 21 19 18 18 17 15 14 12 11 9
3 4 5 4 6 8 4 3 5 2 1 4 1 3 3 5 5 3 3 4 3 1 3 2 2 3 3 4 8 4 4 6 9 9 8 8 9 11 11 9 9 8 8 7 7 7 6 8 11 11 5 13 18 19 22 23 23 22 23 27 29 28 23 16 18 21 21 25 23 18 23 27 24 23 21 19 19 18 17 17 16 15 14 12 11 10
2 5 6 4 9 10 5 3 1 3 2 3 3 1 3 5 7 4 2 3 2 2 3 2 1 3 0 2 5 4 3 2 7 8 7 9 10 11 9 8 9 8 8 7 7 6 6 8 11 14 13 11 15 17 19 21 23 23 23 25 26 24 18 10 5 6 9 16 18 15 20 25 23 22 21 20 19 17 17 17 14 14 15 14 12 11
2 3 7 3 3 5 6 3 1 2 4 2 3 3 2 2 5 4 1 2 2 1 3 2 3 3 2 3 4 5 5 4 7 8 8 10 11 11 9 9 9 8 8 8 7 6 6 7 9 12 16 15 15 15 17 19 21 24 23 22 22 19 15 13 14 13 10 12 15 14 17 22 22 21 19 19 20 17 16 17 15 13 14 15 13 11
2 1 7 6 4 3 1 4 2 3 1 3 5 3 2 3 1 1 2 1 0 1 2 3 3 1 2 2 5 4 4 4 5 7 10 11 11 10 9 9 9 9 8 6 6 6 5 6 9 13 15 14 14 13 12 12 14 18 20 22 24 23 20 18 20 23 20 16 16 15 16 18 18 19 18 17 20 18 16 18 17 14 13 14 13 12
2 1 4 6 6 7 5 3 2 3 3 2 4 3 1 4 3 1 2 3 3 2 2 3 3 2 1 3 5 4 2 6 6 6 7 8 9 10 9 8 8 8 7 5 5 5 6 8 12 15 16 15 15 14 12 9 7 6 8 20 29 28 26 23 20 23 23 20 17 15 15 16 16 18 17 16 19 21 18 17 17 15 13 13 12 11
3 2 2 6 8 7 3 1 2 2 0 1 1 2 2 1 2 1 1 1 3 2 2 0 1 3 4 3 4 5 3 5 9 9 7 6 7 9 9 9 8 7 7 6 5 5 6 10 14 16 18 18 18 17 15 14 14 15 12 17 30 28 26 25 22 24 24 21 19 16 15 16 16 17 17 16 19 22 19 17 16 15 14 13 12 11
2 2 1 3 5 3 5 6 5 3 1 2 3 2 1 2 3 3 3 3 1 2 3 3 1 5 5 3 4 7 6 3 10 12 8 6 7 8 8 8 7 7 7 6 6 4 5 8 12 14 17 18 18 18 17 16 18 21 21 17 21 23 26 27 24 24 24 21 22 20 18 18 16 16 17 17 20 21 20 19 17 16 15 15 13 12
1 3 2 1 3 5 8 10 10 9 7 1 3 3 2 2 3 4 2 3 2 2 2 4 1 4 5 4 4 4 4 5 8 10 9 8 7 7 8 7 7 7 6 7 6 5 5 9 12 13 15 16 16 15 15 16 18 21 24 22 18 16 19 23 23 24 22 20 21 20 20 20 18 19 19 18 19 19 19 20 18 17 16 16 15 14
2 3 2 2 4 5 8 11 10 9 7 3 0 2 3 0 2 3 3 3 2 1 1 3 0 3 5 5 3 3 3 7 7 8 10 8 6 7 8 7 7 6 6 7 6 5 7 10 11 11 11 13 14 13 13 14 16 17 19 22 22 18 14 14 16 18 18 17 19 19 19 17 15 15 16 17 19 19 18 18 19 19 18 17 17 15
1 1 2 1 3 5 6 7 7 8 6 3 3 4 4 2 4 4 2 2 2 1 3 4 1 4 5 5 6 6 6 8 6 7 10 9 7 7 7 7 7 6 6 6 6 6 7 8 8 9 10 12 13 13 13 14 14 15 16 17 20 20 18 14 13 14 14 13 15 15 13 12 11 11 12 15 17 18 17 17 17 17 17 17 17 15
1 1 3 4 2 2 1 0 2 5 5 3 5 6 4 4 5 4 2 3 1 2 2 4 2 4 4 5 7 7 6 7 5 5 6 6 6 7 7 6 6 6 6 6 6 5 6 7 8 9 11 12 13 13 14 15 15 15 14 14 14 16 18 17 15 14 11 10 10 9 7 7 8 9 10 12 13 14 14 15 15 15 15 15 15 14
2 1 2 3 5 4 4 3 2 4 5 4 6 8 6 5 5 5 3 2 2 0 2 2 5 4 1 3 4 5 6 7 6 6 5 5 6 6 6 6 6 6 5 5 6 5 5 6 7 10 13 14 15 15 15 15 15 16 15 14 12 12 13 14 14 13 12 10 10 10 8 8 7 7 7 8 8 9 10 11 13 14 16 15 14 14
3 2 2 2 2 3 5 8 8 7 6 6 6 7 7 6 6 5 2 3 3 3 2 2 5 4 3 1 4 3 5 6 5 6 6 6 7 7 6 7 6 6 6 6 7 6 7 6 5 7 12 14 15 16 16 15 15 15 14 13 11 11 11 12 12 13 13 13 12 11 10 10 9 8 7 7 7 7 7 8 11 13 15 15 16 17
4 1 3 3 4 5 6 7 8 7 7 6 5 6 7 7 6 4 4 5 2 2 5 4 1 2 3 1 3 3 5 7 6 4 4 6 7 8 8 8 6 6 6 7 7 6 6 7 6 7 10 14 16 16 16 16 16 14 13 11 10 11 11 11 12 12 12 13 12 10 9 8 7 7 7 6 5 5 6 7 9 11 12 13 14 16
4 2 2 1 3 5 6 7 8 7 6 6 6 7 6 6 6 4 3 4 1 3 5 3 1 2 1 4 4 5 7 7 8 9 7 4 2 3 7 8 6 4 3 4 7 7 6 6 7 9 12 13 14 15 15 15 16 15 14 11 9 9 10 11 12 13 12 11 10 9 9 8 7 7 7 5 4 5 5 6 7 8 10 9 9 10
3 1 1 2 3 5 5 6 8 7 7 7 7 8 6 7 7 5 4 5 4 2 3 6 7 4 5 5 6 8 8 9 9 10 9 8 6 4 3 2 3 4 3 3 6 8 8 6 7 9 12 12 11 11 12 13 14 14 13 12 11 9 9 9 10 11 12 11 8 8 8 8 7 7 6 5 5 4 4 4 5 7 9 9 9 10
2 1 1 5 3 3 4 5 7 7 7 8 7 6 5 5 4 2 2 4 4 4 7 9 8 4 7 7 7 8 9 10 9 8 8 9 9 8 7 5 3 2 5 8 8 9 9 7 8 9 10 10 8 8 8 7 11 13 10 9 10 10 8 8 7 7 8 8 6 6 8 8 6 5 5 6 5 3 2 2 2 2 5 7 7 8
3 2 1 3 1 3 2 4 7 7 7 6 4 5 5 2 1 3 4 5 6 6 5 5 2 1 6 9 9 8 8 8 6 6 7 7 8 9 9 9 8 6 2 3 6 8 7 6 9 12 13 12 9 10 13 11 10 11 7 5 6 6 6 7 7 6 6 6 5 5 6 7 5 4 5 6 4 2 1 1 1 2 3 5 5 5
2 3 2 2 2 2 1 5 6 5 2 4 2 7 7 4 4 5 4 6 8 5 3 3 3 4 8 10 9 8 7 6 7 7 7 7 7 8 10 11 10 9 8 7 6 7 8 9 11 14 15 14 11 10 10 8 7 6 4 2 3 3 3 5 6 7 6 5 4 4 5 5 4 4 4 5 4 2 1 2 2 3 4 5 6 6
3 3 2 2 3 2 2 7 5 2 4 2 5 9 8 7 7 6 6 8 10 6 5 7 7 7 9 9 8 8 7 5 9 12 11 9 8 7 8 11 11 8 8 8 8 8 9 10 11 13 15 12 9 9 10 7 2 3 1 3 5 5 4 3 4 5 7 6 4 5 5 5 6 6 4 4 3 2 2 2 3 4 5 6 7 8
5 4 2 2 2 2 2 3 2 4 4 4 8 8 7 7 8 6 6 10 13 9 7 7 6 6 8 8 8 8 8 5 8 11 12 11 10 8 6 7 9 8 6 7 8 10 12 12 12 10 10 9 6 7 11 10 5 3 4 3 3 4 5 6 6 4 4 6 6 5 4 5 6 7 6 5 4 4 4 4 5 5 6 6 8 8
5 4 2 1 1 3 3 3 2 2 5 6 5 5 4 4 4 3 3 6 10 10 7 7 7 8 8 8 8 8 8 6 6 7 10 10 11 10 8 6 8 9 7 8 10 11 10 8 8 6 8 9 8 8 9 9 8 8 7 6 5 5 5 7 7 6 5 6 7 7 6 5 5 6 6 6 6 6 6 6 6 6 6 8 9 10
7 6 5 3 2 3 4 2 1 1 2 2 2 4 5 4 4 3 3 3 8 10 8 8 8 9 9 8 9 9 7 7 6 6 8 10 10 10 10 9 10 10 8 7 8 8 5 1 2 4 6 7 7 7 8 9 9 9 7 7 8 9 10 10 9 8 7 7 7 6 6 5 4 5 6 7 7 8 8 7 8 8 8 9 11 12
2 2 4 4 2 2 4 2 1 2 2 2 4 7 7 6 6 5 3 2 6 9 8 8 8 8 8 7 7 7 6 6 4 5 6 9 10 10 10 10 12 14 13 9 8 10 9 8 6 2 5 3 4 6 8 9 10 9 9 10 10 10 11 12 12 10 8 6 5 5 5 4 5 6 6 7 8 9 9 10 11 11 10 11 12 13
7 4 3 3 2 2 4 3 1 1 1 3 6 7 8 7 6 5 2 2 6 8 7 8 7 7 7 7 7 6 5 4 3 5 6 7 9 10 11 12 12 13 14 11 10 11 11 12 12 7 3 4 6 7 9 9 9 8 9 10 11 12 13 14 14 14 13 11 10 9 9 9 9 10 10 11 13 13 14 14 13 12 12 11 12 14
4 3 3 3 2 0 2 2 1 1 1 4 7 8 8 7 6 5 1 3 4 6 6 7 7 6 6 6 5 4 2 2 3 5 7 8 9 10 12 15 17 18 18 16 15 15 13 12 12 11 11 11 11 10 12 13 13 13 14 15 15 14 15 16 15 15 15 15 14 13 13 12 12 13 13 14 14 15 15 14 13 12 11 11 12 14
3 2 2 2 2 2 1 2 2 1 1 3 5 7 7 5 3 2 2 4 4 5 6 6 6 6 6 6 5 4 5 6 6 7 7 8 8 8 10 14 16 19 21 22 21 19 17 16 14 13 15 17 15 12 13 15 17 17 18 18 17 16 16 16 16 16 16 16 16 15 15 15 15 15 15 14 14 14 14 13 12 13 12 12 13 12
3 1 1 2 2 2 2 3 2 1 3 3 3 4 5 2 2 2 3 3 3 5 6 6 6 6 6 6 6 6 6 7 8 8 7 7 8 9 11 13 14 15 19 21 20 19 19 19 18 17 18 18 17 16 15 14 14 15 16 16 16 16 16 16 15 15 16 17 17 16 15 14 14 14 14 14 14 15 15 15 15 15 14 13 12 9
4 2 0 1 2 2 2 2 0 3 3 0 1 1 1 1 2 0 2 3 5 7 6 5 6 6 6 6 6 6 6 7 7 7 7 8 8 9 12 15 15 16 18 19 20 21 21 20 20 20 20 19 20 21 19 15 12 11 12 12 12 13 14 14 14 15 15 17 18 19 18 18 18 18 17 17 16 16 17 18 18 18 16 14 12 11
3 2 1 1 1 2 2 1 3 4 2 3 2 1 1 2 4 7 7 5 5 5 5 5 6 7 7 7 7 6 6 6 7 7 7 8 8 9 12 16 17 18 19 21 24 26 23 19 17 17 18 18 18 18 16 13 10 10 10 10 12 13 13 14 15 15 16 18 19 20 21 21 21 21 21 20 20 21 22 22 21 20 17 14 13 13
2 4 3 1 2 2 1 2 5 4 3 3 3 3 5 7 8 8 7 5 4 5 5 5 6 7 7 7 6 6 6 6 7 7 7 7 7 9 12 15 17 19 20 20 22 24 21 17 16 15 16 17 16 15 15 15 15 14 14 14 14 15 15 14 15 15 16 17 19 20 21 20 20 19 18 18 18 18 20 21 20 18 16 15 14 14
3 5 4 2 3 3 2 5 9 7 5 6 6 7 8 8 7 6 5 4 4 5 5 5 6 6 6 6 6 6 6 6 6 7 7 6 6 8 10 13 16 18 19 19 20 20 19 18 16 14 13 15 16 16 17 17 17 17 18 18 18 18 18 18 17 17 17 17 17 18 19 19 18 17 16 17 16 12 10 10 11 13 14 14 13 14
3 4 4 4 4 1 0 5 8 6 5 7 7 6 7 7 7 6 4 4 4 4 5 6 6 5 5 5 6 6 7 6 6 6 6 6 6 7 9 12 14 17 19 20 20 18 16 15 15 14 13 13 15 17 18 18 18 19 20 20 20 20 20 20 21 20 20 20 19 19 19 18 17 15 14 14 12 8 4 6 9 11 12 12 12 14
3 4 1 2 4 2 3 7 9 6 6 8 8 7 7 6 7 6 6 6 6 6 5 6 6 6 6 7 6 6 7 7 7 7 7 7 6 7 9 13 15 17 18 19 19 17 15 14 13 13 13 14 15 16 18 18 18 19 19 19 20 20 20 21 22 23 24 24 23 22 21 20 19 17 14 10 8 7 7 8 11 12 12 12 13 14
5 4 2 3 4 3 4 6 7 5 4 6 7 8 8 7 7 7 6 6 6 6 6 6 7 8 9 10 9 8 7 8 8 8 8 7 6 8 11 12 12 13 15 17 18 17 15 13 12 13 14 15 16 17 19 20 21 21 20 20 20 20 21 22 23 24 25 24 25 25 24 22 22 20 17 13 12 11 10 10 11 12 12 11 11 11
4 4 4 4 1 2 3 5 5 3 2 5 5 7 6 5 6 6 6 6 6 6 6 5 6 8 8 10 12 10 8 8 10 10 7 6 8 11 10 9 9 11 14 16 16 16 15 13 13 14 15 16 18 19 20 21 22 22 22 22 21 21 21 22 22 22 23 24 25 26 26 27 26 22 17 16 16 16 15 14 13 11 9 7 6 7
Wind_Direction
168 175 236 227 233 235 224 206 237 319 352 336 335 320 323 325 315 98 127 174 118 113 181 197 217 243 237 215 202 182 135 125 137 142 144 153 150 150 149 149 158 168 174 170 170 170 168 174 181 181 175 161 156 159 158 158 159 154 154 151 150 151 148 147 145 141 140 139 138 134 133 132 126 125 122 117 117 116 113 109 102 100 97 91 94 99
169 188 231 229 232 226 201 158 94 27 11 358 356 330 326 326 316 34 89 96 66 89 289 340 346 300 320 281 244 198 134 138 154 152 153 164 161 155 156 154 158 169 170 161 168 170 167 177 182 171 163 158 157 159 160 162 162 160 161 157 157 157 152 149 146 147 146 146 148 143 139 139 135 134 126 114 115 114 113 112 102 97 93 87 101 111
200 224 238 231 230 215 184 70 64 43 17 8 1 337 312 305 325 354 35 51 50 68 316 358 7 317 319 333 310 226 152 151 162 159 159 166 165 162 163 159 158 166 164 155 165 167 163 173 177 165 160 160 160 160 161 164 165 165 165 164 164 161 155 153 155 159 155 153 155 147 144 141 133 130 125 112 111 110 107 106 99 96 93 90 102 115
200 240 241 222 203 182 116 38 44 29 8 337 295 318 292 287 344 343 332 32 51 74 101 32 7 315 315 343 333 290 155 131 155 161 163 171 171 171 168 162 162 164 158 154 162 161 157 166 168 161 159 158 160 163 163 165 168 168 169 171 169 163 160 157 154 155 149 147 147 140 139 138 129 124 122 115 112 108 106 104 98 96 95 95 98 104
224 235 225 176 169 162 111 58 41 46 354 296 244 228 265 282 320 333 293 9 38 12 26 56 18 316 317 336 310 305 58 118 146 151 161 178 173 170 164 158 163 159 152 154 160 161 156 160 163 162 161 157 161 166 167 168 170 170 172 175 174 168 167 163 154 151 144 138 136 132 130 130 127 127 126 122 118 112 110 107 102 104 103 100 101 102
232 222 137 110 136 140 106 110 187 140 315 302 256 228 235 265 288 272 291 28 46 349 301 96 55 299 302 307 274 288 81 145 154 143 165 177 151 158 158 154 162 155 150 154 158 163 160 159 162 166 168 166 167 171 172 172 171 172 174 176 179 175 172 169 162 159 153 144 141 138 134 133 133 135 133 131 127 121 117 113 107 104 105 101 104 111
223 197 127 110 85 37 77 344 266 172 180 290 267 265 259 272 287 268 281 38 83 278 259 134 120 264 299 304 267 263 245 212 185 136 155 137 124 151 160 156 160 151 151 156 156 162 162 162 164 169 177 179 178 177 175 173 171 174 176 177 181 179 174 171 169 169 164 156 152 149 143 141 142 140 138 136 131 127 121 117 111 100 96 93 93 103
165 116 109 119 114 90 151 256 256 200 174 233 238 265 306 323 324 305 315 347 205 233 292 155 141 178 282 282 268 268 286 247 174 123 125 122 124 146 157 158 163 165 166 164 163 167 166 168 173 175 180 185 185 181 178 175 173 175 178 177 181 182 177 173 173 175 172 165 160 153 147 148 148 141 138 138 132 127 121 117 116 110 103 99 96 96
142 134 166 156 127 161 199 229 243 205 188 236 223 215 309 359 349 338 338 303 234 133 311 291 163 163 265 273 286 299 300 173 153 143 140 146 146 155 162 168 172 174 170 162 161 167 168 174 179 180 182 187 188 184 181 178 175 176 177 176 179 182 182 180 178 177 175 169 160 153 152 153 149 141 139 139 134 129 127 124 123 120 113 108 106 102
174 163 175 157 130 181 216 230 243 234 214 220 216 180 57 37 331 318 317 316 32 75 269 281 306 143 280 279 295 324 292 184 168 171 159 149 131 145 153 162 166 159 154 162 166 167 173 179 181 181 181 184 185 186 184 180 177 174 171 172 178 185 187 186 183 179 175 166 158 159 160 154 147 144 142 141 137 134 134 132 127 123 122 119 117 114
237 140 140 151 156 191 250 250 252 254 224 157 121 11 31 16 280 270 282 51 59 16 255 253 257 227 286 279 246 283 242 189 146 134 140 107 66 99 125 146 163 159 156 171 174 168 169 172 175 177 180 180 181 186 188 185 183 178 170 167 173 188 192 190 187 182 175 166 163 168 166 156 151 150 148 145 142 141 138 135 129 127 130 129 126 124
285 83 143 204 173 179 297 305 298 296 306 74 62 33 30 348 322 322 340 50 76 272 256 267 279 236 241 265 239 236 234 146 110 107 118 100 79 82 95 113 139 136 120 145 160 158 149 149 162 173 181 182 179 182 186 187 188 182 175 171 173 189 197 193 190 185 178 171 170 172 167 161 158 156 155 151 147 146 142 139 137 134 132 128 127 125
287 243 227 219 172 176 191 270 308 310 314 105 102 64 60 328 348 15 335 28 170 242 254 325 330 273 232 252 261 256 194 111 112 127 115 104 94 85 81 81 92 92 83 91 99 101 115 132 167 180 182 180 180 184 184 186 188 183 179 178 178 188 200 198 193 189 184 177 173 174 169 164 161 160 159 153 150 149 146 144 143 141 136 130 131 129
303 293 279 270 152 179 165 141 250 291 293 149 159 135 137 180 31 318 283 16 239 260 287 322 314 291 274 287 304 297 173 100 92 102 104 103 100 87 80 79 83 87 84 80 79 80 86 88 139 186 187 180 179 183 183 185 185 180 177 182 184 188 200 204 196 191 188 182 176 175 171 165 163 164 161 154 153 151 147 149 150 149 146 139 137 134
288 314 285 295 118 175 178 174 186 215 270 224 191 151 149 153 147 193 209 152 234 272 313 313 239 245 232 257 288 312 32 77 83 88 85 83 85 82 79 79 82 84 84 82 79 74 65 61 61 98 190 191 183 177 179 182 180 174 174 183 190 191 196 207 201 193 190 185 181 178 172 167 164 164 161 156 156 153 149 153 155 156 155 148 144 139
237 259 235 210 170 168 185 221 194 157 328 275 287 97 154 171 148 157 190 201 202 319 313 273 224 228 185 238 270 309 34 68 91 97 89 73 71 80 81 77 77 77 79 80 76 64 47 48 49 49 108 183 182 173 175 176 171 170 175 185 193 194 197 214 212 198 191 188 188 182 171 167 164 162 160 157 159 158 154 156 159 163 163 157 152 148
197 259 272 208 164 164 178 234 209 109 116 295 332 106 202 165 135 134 239 246 110 72 279 232 237 292 285 247 247 184 150 95 98 100 96 87 82 84 85 79 76 73 68 67 73 76 60 52 53 51 65 117 151 163 177 180 178 180 182 187 192 193 197 211 211 192 192 191 195 189 172 167 162 160 160 161 162 163 159 157 158 163 165 164 162 159
129 275 300 303 174 184 176 165 3 63 109 57 306 270 300 72 106 117 120 343 60 93 270 220 193 248 221 258 263 183 175 157 127 120 101 93 94 91 90 89 84 79 72 64 61 68 70 66 69 66 64 84 117 140 164 177 186 191 192 194 193 190 191 187 173 175 186 188 194 196 179 170 164 159 160 164 164 163 164 162 158 158 165 169 168 165
51 339 300 316 332 320 104 109 25 331 109 167 241 274 36 71 28 37 117 116 143 163 295 277 251 251 168 239 278 244 184 145 129 123 110 107 107 101 99 96 91 87 78 65 53 54 59 59 69 77 73 77 92 103 127 153 172 183 192 199 194 183 177 174 173 178 181 178 187 199 188 176 172 167 166 170 169 166 164 164 161 159 162 168 171 171
62 92 284 312 345 356 6 76 145 290 302 244 259 307 45 150 167 188 162 151 159 173 246 280 295 319 250 237 273 291 112 97 60 47 85 110 111 107 107 101 97 98 91 79 67 56 54 57 64 73 74 74 79 81 86 94 106 125 162 174 172 169 168 170 173 178 178 175 180 191 188 180 178 176 176 177 177 173 165 160 163 166 168 171 174 176
42 85 244 305 343 4 348 273 178 191 309 42 23 338 323 351 83 59 346 41 121 148 185 103 339 289 268 281 336 358 32 105 88 65 59 76 91 97 102 104 105 109 106 100 88 67 61 66 68 70 70 72 75 74 72 70 66 52 61 139 155 155 159 164 169 176 179 176 173 180 185 181 177 174 170 167 172 174 167 158 158 163 171 176 178 182
41 93 165 301 334 331 277 290 330 356 347 133 141 162 159 99 80 60 338 319 26 139 153 134 238 267 261 293 2 12 2 63 103 103 97 85 84 86 91 99 105 109 115 117 111 97 77 75 75 71 69 72 74 74 72 68 66 62 65 103 140 148 153 158 162 172 179 175 171 179 186 185 182 177 168 159 163 166 166 165 161 159 164 172 182 192
93 100 85 289 276 280 293 309 327 330 320 291 149 138 106 103 108 118 205 260 262 253 144 127 185 266 271 302 360 20 25 61 93 108 111 103 97 96 92 90 92 100 110 117 122 124 104 92 90 83 77 78 78 77 79 74 71 71 73 84 105 127 150 159 160 167 173 172 174 179 180 180 179 180 180 176 173 174 174 175 176 175 172 171 178 191
9 75 74 306 293 307 317 317 318 321 325 327 315 81 74 38 114 131 193 196 177 255 73 98 237 275 283 305 341 352 54 84 94 105 109 110 109 108 106 100 95 92 93 103 114 119 115 108 103 97 89 86 86 85 84 81 79 79 79 82 88 99 126 154 163 166 166 164 167 167 166 169 169 170 177 185 190 194 193 189 190 193 192 189 188 192
319 68 98 38 342 337 336 332 334 341 357 354 329 27 58 29 46 51 355 39 65 281 104 103 215 262 284 336 4 359 40 84 108 118 118 125 126 118 115 112 109 111 113 119 126 126 126 124 117 115 108 96 95 97 94 89 84 84 86 86 88 96 106 120 141 156 161 157 152 150 155 168 178 182 191 197 198 200 202 202 202 202 202 204 206 207
141 116 111 120 158 249 281 329 354 342 350 353 332 347 9 14 44 69 54 57 37 299 66 105 180 252 303 8 13 356 32 74 79 69 78 98 112 113 115 118 121 129 136 136 136 137 135 133 131 130 125 116 111 108 102 98 92 85 83 86 92 100 105 108 115 128 140 147 146 143 142 155 172 191 207 215 211 206 207 213 215 214 214 217 218 219
79 53 92 137 177 200 235 264 327 345 335 325 326 331 336 355 36 63 62 96 170 329 343 190 156 157 235 48 38 7 25 53 75 88 81 74 97 115 122 129 131 127 126 117 107 102 99 113 130 135 135 133 127 119 110 103 100 97 91 88 93 103 111 113 111 114 122 134 147 155 156 153 156 166 184 203 212 210 211 217 220 221 223 229 233 234
69 9 317 282 255 263 281 299 317 322 308 301 309 315 317 332 6 26 343 230 169 77 313 257 101 111 213 121 75 61 38 32 66 123 149 142 133 141 136 133 129 116 110 100 88 85 83 78 85 116 131 135 129 124 122 116 110 107 105 103 103 106 110 113 113 116 125 134 141 149 154 158 162 162 166 178 194 204 211 216 222 226 230 238 244 246
104 200 263 286 286 288 293 300 304 298 294 300 302 299 304 322 346 344 265 242 193 148 230 227 90 254 236 61 59 88 71 44 39 67 154 161 152 155 144 134 133 127 128 126 111 98 90 82 69 75 97 111 114 114 118 121 122 119 117 117 117 116 117 121 124 125 130 136 139 141 142 145 151 153 152 160 176 191 202 209 218 226 233 242 246 249
101 189 252 309 311 320 330 324 317 311 306 308 308 307 307 324 355 14 339 314 300 205 219 196 116 282 297 48 41 55 63 58 43 33 37 49 46 173 149 135 139 138 129 137 133 119 102 92 81 70 75 88 102 111 118 122 124 127 131 131 129 126 126 131 137 139 142 143 142 145 146 145 148 148 149 158 172 185 201 214 224 230 235 243 250 255
77 188 215 61 23 345 334 321 318 320 322 322 320 321 334 354 3 20 22 4 2 329 347 56 63 9 336 11 47 58 55 52 46 34 29 28 17 12 50 82 167 157 127 145 150 137 128 115 95 81 76 73 79 103 121 130 132 133 138 144 147 145 136 137 142 143 144 146 147 153 155 151 149 156 164 166 158 162 189 208 221 231 237 245 255 261
85 186 42 66 49 313 303 319 326 341 355 349 337 338 4 26 17 29 63 51 52 29 19 41 51 357 327 351 29 56 57 54 49 35 25 27 36 44 37 9 317 220 183 185 170 144 139 138 125 109 95 84 76 73 75 105 141 144 139 138 142 144 144 150 154 144 141 146 150 152 150 145 140 142 153 156 151 152 169 174 182 225 245 256 266 268
119 110 79 89 100 261 280 349 352 8 11 339 327 354 353 343 76 69 44 38 61 70 49 52 75 326 356 10 18 33 48 59 60 50 50 48 45 48 46 35 21 12 4 184 154 126 117 115 111 103 92 87 85 68 58 68 108 125 121 111 119 135 155 166 168 163 158 159 158 147 141 144 143 127 127 139 146 149 159 197 263 286 292 293 295 292
132 122 161 142 136 245 333 36 21 14 334 271 328 16 359 356 64 81 63 45 57 76 89 91 88 42 30 28 21 15 22 49 57 49 61 72 59 49 47 41 36 36 41 51 70 81 79 82 91 91 85 83 83 73 61 64 88 103 113 134 138 165 195 191 189 187 176 168 168 161 158 165 169 153 138 141 143 144 187 257 274 290 298 298 296 293
171 152 184 153 138 192 38 49 36 288 237 196 44 24 11 24 47 75 81 50 39 41 53 60 56 49 48 42 28 11 359 34 58 47 43 50 51 56 60 50 45 46 50 61 66 61 63 69 76 82 83 82 80 61 34 21 73 123 162 214 195 199 220 243 235 199 181 184 192 180 183 198 193 186 187 190 197 214 238 257 270 278 282 284 285 285
162 157 182 174 145 141 86 94 162 242 278 33 43 24 13 23 25 38 53 31 19 25 50 61 55 51 54 46 30 8 346 8 60 51 36 32 29 33 55 68 70 67 51 55 69 71 62 45 32 52 78 76 62 44 28 21 28 25 357 323 216 202 220 248 261 244 194 194 197 193 212 224 201 190 193 200 208 219 228 246 260 266 271 275 277 280
177 172 162 167 166 134 142 183 210 308 337 360 20 12 19 37 27 46 91 36 13 15 34 48 41 35 40 40 26 5 355 18 50 34 21 26 23 18 22 49 77 84 84 84 82 81 76 44 11 33 70 62 44 28 16 7 359 354 347 333 318 306 282 263 258 254 238 222 212 214 231 236 211 200 205 209 216 229 236 244 253 258 265 273 276 278
196 194 165 159 196 130 129 171 313 344 304 290 314 350 11 22 7 21 98 54 1 355 9 33 37 31 30 28 16 5 14 42 41 4 4 16 14 8 9 22 41 48 59 90 93 79 76 277 240 126 92 54 32 14 352 338 336 343 342 326 319 314 309 303 291 274 261 248 235 228 230 231 226 228 229 224 225 233 236 241 252 260 263 270 278 279
84 171 144 135 142 107 116 147 209 197 209 281 324 346 351 345 352 19 64 43 343 338 360 24 28 28 29 23 14 17 37 49 19 337 351 5 6 7 3 5 18 19 17 32 54 49 29 351 333 86 105 53 12 352 328 307 302 311 314 309 305 297 294 296 296 293 291 284 271 259 249 248 250 249 245 237 235 239 245 251 258 259 259 266 275 281
36 26 48 77 100 153 156 171 209 162 95 351 334 333 331 336 17 51 66 325 325 327 351 14 13 19 28 22 18 30 50 49 340 316 340 357 1 7 2 354 355 359 4 13 17 16 14 358 344 346 10 1 343 330 318 303 291 286 283 282 283 281 279 282 285 289 291 288 283 274 266 264 263 260 257 254 252 253 254 256 257 256 258 266 275 283
25 26 49 64 53 99 161 159 138 97 31 328 318 324 331 346 39 71 195 265 298 319 349 7 358 2 26 32 31 27 12 360 341 337 351 356 353 353 352 348 346 344 345 344 338 338 344 343 334 328 326 324 315 299 289 286 281 276 272 269 267 267 269 271 272 274 275 275 274 268 261 259 258 257 257 257 256 254 251 249 249 251 257 268 279 285
12 14 30 42 41 47 87 102 69 22 282 276 301 335 355 7 48 88 225 246 268 312 341 346 339 354 19 27 26 11 340 342 356 355 351 347 343 339 340 344 346 342 337 334 331 329 328 323 317 313 312 313 310 297 285 277 272 268 265 262 261 262 265 266 267 269 271 274 276 273 267 263 261 260 260 261 260 256 251 245 245 247 254 270 279 277
20 25 357 5 26 53 66 68 51 315 244 238 286 346 22 60 171 207 247 264 308 346 348 343 351 11 24 19 12 8 356 349 348 345 344 341 336 331 330 332 334 330 325 324 324 325 325 319 311 305 302 303 304 304 300 292 284 276 268 262 263 268 269 267 266 270 274 279 283 283 279 275 272 268 266 265 263 261 257 255 254 253 255 264 265 243
15 22 33 22 43 52 45 52 188 227 220 130 22 349 32 199 207 181 360 359 14 10 1 359 2 5 14 15 2 351 345 339 334 335 342 341 336 334 330 326 324 321 318 315 314 313 311 306 300 295 293 294 297 300 300 294 293 294 286 282 287 290 284 279 274 272 274 279 282 284 284 282 281 280 277 273 270 268 266 263 257 249 246 247 238 208
4 4 90 52 48 90 124 169 198 201 173 90 113 170 360 15 36 44 40 34 25 10 1 3 354 347 357 5 357 346 341 337 339 344 345 339 334 332 327 324 325 326 325 323 320 313 304 300 304 306 305 304 307 312 315 313 311 313 311 312 315 313 306 299 290 282 278 276 276 276 276 275 274 274 273 271 268 265 263 260 252 242 235 226 212 195
13 18 51 37 18 57 77 44 48 50 36 39 53 54 44 43 45 44 40 33 16 359 352 356 350 347 354 359 355 348 342 340 340 337 328 322 322 321 319 320 322 324 323 325 326 324 322 328 339 342 339 337 337 341 343 340 334 330 327 325 324 321 317 312 304 296 290 284 278 273 268 266 267 268 268 269 269 266 264 260 248 231 217 204 193 186
22 26 46 39 28 37 11 24 34 26 3 16 32 31 31 33 31 36 44 30 357 345 348 355 353 347 350 353 349 335 326 326 327 318 312 311 310 309 311 311 311 314 317 319 324 330 337 342 343 343 344 342 340 338 335 332 329 326 325 324 321 318 316 314 309 304 300 295 291 285 274 265 262 264 268 271 272 273 273 259 230 202 192 189 185 181
9 30 41 29 25 32 321 22 27 11 354 17 31 26 20 13 2 2 18 11 356 359 1 354 349 343 336 332 329 320 312 309 306 301 298 298 296 298 304 307 309 312 314 315 318 326 335 337 335 336 337 336 335 334 329 323 318 316 315 314 313 311 307 304 300 297 294 291 289 289 283 272 263 259 261 264 265 261 239 210 199 191 190 195 199 196
27 38 36 26 20 1 349 11 17 13 3 8 10 5 358 351 345 349 3 8 5 3 355 344 340 339 333 326 323 319 313 306 297 290 288 286 284 290 297 302 306 308 311 314 317 322 324 325 325 329 334 338 339 335 329 323 319 316 312 308 306 303 299 296 292 288 285 283 281 280 279 275 269 262 253 244 239 232 212 192 189 192 194 199 207 209
43 39 28 47 35 359 351 12 23 23 347 333 343 347 343 348 2 5 2 358 347 338 335 336 338 338 332 327 323 319 313 308 301 294 287 283 286 298 305 310 317 322 325 325 322 320 318 322 332 339 340 339 337 332 327 322 317 313 310 307 303 300 297 294 290 283 279 278 277 274 273 271 268 263 253 235 218 208 195 179 175 183 189 193 200 203
59 57 56 68 66 299 341 9 20 22 314 300 324 339 341 1 13 353 337 337 337 339 346 350 345 337 326 321 323 323 315 312 314 312 305 305 314 318 321 330 337 331 322 315 314 318 323 327 333 334 330 328 327 323 318 314 309 306 305 303 302 301 299 297 293 285 277 272 269 268 267 266 264 258 242 220 203 191 179 166 161 166 175 184 198 205
Height
741 752 757 757 755 750 745 742 741 740 739 741 742 743 743 742 733 719 719 714 711 723 729 729 732 730 729 728 723 719 719 729 737 740 744 747 748 749 750 754 757 759 759 758 761 763 765 767 769 774 777 777 779 782 784 786 788 790 791 792 793 794 795 797 799 800 801 802 802 803 803 804 805 806 807 808 809 809 810 811 812 812 814 814 815 815
742 756 756 747 745 741 738 737 736 738 739 740 743 745 744 745 737 721 721 718 711 724 732 729 731 731 730 730 726 721 723 731 735 736 742 745 747 748 749 752 755 756 756 757 761 762 764 767 769 773 775 776 778 780 783 786 788 789 791 792 792 794 795 796 797 798 800 800 801 801 802 803 805 806 807 808 809 810 811 812 813 814 815 815 816 817
751 754 746 737 736 734 734 733 735 738 740 742 743 747 750 744 737 729 725 721 717 726 733 730 733 735 731 728 727 724 723 728 731 731 736 740 745 748 749 751 753 755 756 758 760 761 763 766 768 771 773 775 777 779 783 785 787 789 790 791 793 793 794 795 796 797 798 799 799 800 802 803 804 806 807 808 809 810 811 812 813 815 815 816 816 817
757 748 735 731 731 732 735 733 735 739 741 743 744 749 751 742 742 744 734 727 726 729 733 734 735 735 732 728 725 724 721 723 729 729 731 734 738 743 746 748 750 753 756 758 761 761 764 766 767 770 772 774 776 778 782 784 787 788 789 791 792 793 793 794 795 796 796 798 799 800 802 803 804 807 808 809 810 811 812 813 814 815 816 816 817 817
747 735 725 727 730 731 736 736 737 744 746 745 743 746 747 740 742 745 736 730 731 732 731 735 744 741 733 734 731 724 722 724 726 728 730 731 732 737 742 745 746 749 753 757 760 761 763 765 767 768 771 773 775 777 780 783 785 787 788 790 792 793 793 794 794 794 795 796 798 800 802 804 805 807 808 809 810 812 813 814 815 815 816 817 817 818
737 726 722 728 731 731 736 739 738 743 749 749 742 739 739 737 738 739 736 737 745 748 736 738 763 761 738 737 737 727 726 727 724 724 726 727 730 736 740 744 746 748 751 754 757 759 761 764 766 768 769 772 774 776 778 781 784 786 787 789 792 793 793 793 793 794 794 795 797 798 800 802 804 806 807 808 810 811 813 814 815 816 816 817 818 818
729 723 722 727 732 733 737 740 736 737 749 754 742 733 733 734 736 738 737 744 756 757 740 736 763 770 750 740 736 729 728 729 726 724 724 725 731 737 739 743 746 748 751 753 755 757 759 762 765 767 769 770 773 775 778 780 782 784 785 788 791 792 792 792 793 793 794 795 796 797 798 800 802 804 806 808 809 811 812 814 815 816 817 818 818 819
726 726 726 727 730 735 740 742 735 733 748 752 735 729 732 733 737 738 737 745 749 747 743 739 749 765 762 745 732 729 731 733 730 727 725 726 732 738 740 742 744 746 748 750 753 755 757 759 761 764 767 769 771 774 777 778 780 782 783 786 789 792 792 792 793 793 793 794 795 796 798 800 801 802 804 807 808 810 812 813 815 816 817 818 819 819
723 729 730 728 732 738 739 737 731 731 742 741 728 728 731 732 737 737 740 745 742 747 759 750 744 764 769 745 730 730 734 737 733 729 728 726 729 735 737 739 740 742 744 747 751 754 756 758 759 761 763 766 770 772 774 776 778 780 783 785 788 791 793 793 793 793 794 794 795 796 797 799 801 802 803 805 807 809 811 812 814 815 817 818 819 819
720 722 723 726 733 735 733 729 726 730 736 731 725 729 730 731 735 737 744 747 746 759 770 757 748 767 771 748 737 740 739 739 734 729 728 726 728 733 735 738 740 742 745 746 748 750 752 754 756 759 762 765 768 770 772 774 777 779 781 783 787 790 793 793 794 794 794 795 794 795 796 797 799 800 802 805 806 808 810 811 813 815 816 818 818 819
717 714 715 720 726 726 725 726 724 725 726 724 726 732 734 736 737 740 744 745 758 772 768 755 747 761 773 757 743 743 738 734 732 730 729 727 730 734 736 739 740 742 745 745 746 748 751 754 757 760 762 764 767 769 771 773 775 778 779 781 785 790 793 794 795 794 794 794 794 794 795 796 797 799 801 803 805 807 809 811 812 814 816 817 818 819
719 720 720 717 717 719 723 726 724 720 720 723 730 738 746 750 747 752 752 752 773 782 764 753 747 757 774 762 743 737 730 727 729 731 732 732 735 737 737 738 739 742 745 746 748 751 753 757 759 761 762 764 766 767 770 772 774 776 779 779 782 789 794 794 795 795 794 794 794 794 795 795 796 798 799 801 803 805 807 809 812 813 815 817 818 820
727 725 721 717 714 716 725 732 730 725 723 728 735 743 759 769 768 772 772 769 779 776 758 754 755 761 768 755 738 733 727 724 726 729 733 733 735 737 737 740 742 745 748 748 751 754 755 758 759 761 762 764 765 766 768 771 773 775 778 780 781 787 793 795 794 795 795 794 794 794 795 796 797 798 799 801 803 804 806 809 811 812 815 817 818 820
740 729 719 721 721 717 723 735 740 737 732 734 739 748 764 776 784 789 784 779 780 771 756 752 759 767 763 749 739 734 729 726 726 729 732 731 733 736 738 742 745 746 749 750 753 756 757 758 758 759 761 762 764 765 767 769 772 774 777 780 782 784 790 795 795 795 796 796 795 795 795 796 797 798 800 802 803 805 806 808 810 812 814 816 818 819
753 748 729 724 726 722 721 727 733 733 734 734 731 738 754 762 776 787 784 782 782 772 761 757 765 772 765 752 741 733 729 727 728 730 731 732 734 737 741 744 746 748 750 751 753 755 756 757 758 758 759 760 762 764 766 768 771 774 776 780 782 783 786 792 796 797 797 798 798 797 797 797 798 799 801 803 804 805 806 808 809 811 813 815 817 819
750 750 727 717 719 720 722 720 717 725 737 735 725 736 749 747 755 769 771 771 772 773 769 763 765 763 756 749 738 732 730 728 731 733 733 736 740 742 745 747 748 751 752 752 753 755 755 756 758 758 758 759 761 763 766 768 770 774 777 780 782 783 786 793 799 801 801 801 801 799 798 798 799 800 802 804 805 806 807 808 809 810 812 814 815 818
749 745 723 716 718 715 718 717 714 724 737 736 734 741 739 731 739 760 768 763 767 780 775 764 763 759 754 751 739 732 733 733 734 735 736 742 745 746 750 751 752 753 754 755 756 757 758 758 759 759 759 759 762 764 765 768 770 772 777 780 782 784 788 794 801 805 805 805 805 803 800 799 799 800 802 804 805 806 807 808 809 810 811 813 814 817
744 746 727 719 724 715 709 714 715 716 725 736 743 739 730 729 736 752 768 771 774 785 776 762 765 765 763 761 746 736 738 738 737 737 740 746 748 750 753 754 755 756 757 759 759 760 760 761 761 761 761 762 763 765 766 768 770 772 775 779 781 786 790 794 798 802 805 805 805 805 802 800 799 800 801 803 805 806 807 808 809 809 810 812 813 815
736 749 737 720 725 719 709 718 726 720 717 728 733 728 732 750 755 754 766 776 781 788 782 767 763 766 768 765 753 744 742 742 740 740 744 748 749 752 755 755 757 759 761 763 763 763 763 763 763 763 764 764 765 766 768 769 771 773 775 777 779 786 792 796 797 797 799 800 802 804 803 801 801 800 801 803 804 805 806 807 808 809 810 811 812 814
732 751 750 727 722 724 720 727 738 734 723 723 727 727 731 746 755 755 758 765 775 785 785 774 768 771 768 761 754 747 742 744 747 747 749 750 750 752 754 757 760 762 765 767 767 766 765 766 765 765 766 766 766 767 768 769 771 772 774 775 778 784 790 793 793 793 795 795 797 801 802 802 801 801 801 802 803 805 805 806 807 808 810 811 812 814
733 748 756 739 727 733 737 734 735 736 733 734 740 742 740 741 745 751 754 756 765 776 782 781 782 778 763 754 754 748 743 746 749 751 754 754 754 754 755 758 761 763 766 768 768 767 767 768 768 767 768 767 767 768 768 769 771 771 772 773 776 779 782 786 788 789 791 791 793 797 801 801 801 801 801 801 803 804 805 806 806 807 808 809 811 813
742 748 755 752 745 746 744 731 727 729 730 735 740 742 745 745 750 761 767 763 761 768 774 781 788 777 756 750 751 747 747 748 748 751 756 757 758 758 758 760 762 764 766 767 768 769 769 769 770 770 770 769 769 769 770 771 771 772 773 774 776 777 778 781 784 786 788 789 791 794 797 799 800 800 799 800 801 803 804 805 805 806 807 808 809 811
741 746 755 758 752 747 739 726 724 727 725 728 732 734 738 742 750 765 775 770 765 764 764 773 784 773 754 748 748 746 748 750 750 752 755 759 760 760 761 762 763 765 766 768 769 770 770 771 771 772 772 772 772 772 772 773 773 774 775 776 778 778 779 781 783 785 787 789 791 793 794 796 797 797 798 798 800 801 802 803 804 805 805 806 807 808
741 747 756 759 752 744 736 728 725 724 726 732 732 730 735 741 745 753 759 759 763 764 764 774 785 774 755 748 747 746 748 751 754 754 756 761 762 762 763 764 766 768 768 769 771 771 772 772 772 773 773 773 774 774 775 775 775 776 777 777 779 780 782 783 785 787 789 790 791 792 792 794 795 796 797 798 799 800 800 801 803 804 804 804 805 806
748 752 758 765 768 762 753 747 743 738 739 744 741 736 737 739 742 748 750 754 762 765 763 774 785 776 758 750 749 749 752 756 757 756 757 761 763 764 764 764 767 769 770 771 772 772 773 773 774 774 774 774 775 776 776 777 777 777 778 779 780 781 783 785 786 788 791 792 792 792 792 793 796 797 798 799 799 799 800 801 802 803 804 804 805 805
750 755 758 769 779 779 773 768 763 756 752 750 747 743 740 740 744 751 756 764 771 768 763 771 781 775 761 754 754 753 755 760 761 759 760 762 763 764 765 766 768 769 771 772 772 773 773 773 775 775 775 776 776 777 777 778 778 779 779 780 781 783 784 786 787 789 791 792 793 794 794 795 796 798 799 799 799 799 800 801 801 802 803 804 805 806
751 757 757 764 771 773 771 765 757 755 757 756 753 749 746 746 749 753 761 769 770 769 768 767 770 772 767 761 758 755 755 760 763 764 765 765 766 766 766 767 768 769 771 771 772 774 774 775 776 776 777 777 777 778 779 778 779 780 781 782 783 784 785 786 788 789 791 792 793 795 796 796 798 799 800 800 800 800 800 800 801 802 802 803 804 806
756 761 758 760 762 761 760 757 752 753 756 756 754 753 751 750 752 756 764 765 762 769 775 766 761 769 770 763 760 759 755 757 762 764 765 765 765 765 766 768 769 770 771 771 772 774 774 776 777 777 778 778 779 779 780 780 781 781 782 784 785 786 787 787 789 790 791 793 794 796 796 797 798 799 799 800 800 799 799 800 801 801 802 803 804 805
757 764 759 758 760 758 756 755 754 754 754 753 753 754 753 752 755 760 762 760 759 767 773 764 760 766 766 762 761 761 760 760 762 762 762 763 763 763 764 766 769 771 771 771 773 774 775 777 778 779 780 780 780 781 781 782 783 783 785 786 786 787 788 789 790 791 793 794 795 796 796 797 798 798 799 799 799 799 799 799 800 801 802 803 803 804
754 762 759 759 763 762 759 759 757 756 756 754 753 754 753 755 758 761 763 761 760 762 763 763 764 766 766 765 762 762 764 764 765 765 765 768 768 765 764 765 767 770 772 772 773 775 776 777 778 780 781 781 782 783 783 785 785 786 787 787 788 789 789 790 791 792 793 794 794 795 795 796 797 797 798 798 798 798 798 799 800 800 801 802 802 802
754 761 758 759 768 769 764 761 760 759 760 761 759 757 756 758 760 761 764 765 766 767 766 764 768 772 771 766 762 763 765 765 767 769 770 772 772 770 770 770 770 771 772 773 773 774 776 778 779 780 781 782 783 784 785 787 787 788 789 789 790 790 790 791 792 792 793 794 794 795 795 796 796 797 797 797 798 798 798 799 800 800 801 801 801 802
757 761 759 762 775 776 767 764 764 763 765 768 767 763 761 762 764 765 767 768 771 774 773 772 779 783 778 771 766 765 766 767 770 772 772 774 775 776 777 776 775 773 772 771 772 773 775 776 778 780 781 782 784 784 786 787 788 789 790 791 791 791 792 792 792 793 793 793 794 794 794 795 795 796 796 797 797 798 798 799 799 800 800 800 801 801
757 761 762 767 777 777 768 767 769 770 775 776 770 767 765 762 762 765 768 769 769 773 777 781 786 786 780 775 773 770 769 770 772 772 773 775 777 778 779 778 778 777 774 772 772 773 775 777 778 780 782 783 784 785 786 788 789 790 791 792 792 792 793 793 793 793 793 794 794 794 794 794 795 795 796 796 797 798 798 798 799 799 800 800 800 800
755 760 763 766 774 777 771 768 773 781 787 783 773 770 769 765 764 767 770 772 772 773 776 780 782 782 780 780 780 778 775 773 773 774 775 776 778 779 780 780 780 780 778 777 777 776 776 779 780 781 783 784 785 786 787 789 790 791 791 792 793 793 793 793 793 793 793 793 794 794 794 794 794 795 795 795 796 797 798 798 799 799 800 799 799 799
757 760 763 764 771 776 772 774 786 793 786 776 773 772 770 769 769 769 770 775 776 775 776 779 783 783 783 782 782 781 778 775 775 777 778 779 780 780 780 781 782 783 782 782 782 782 781 782 783 783 784 786 785 786 788 789 790 791 792 792 793 793 794 793 793 793 793 793 794 794 794 794 794 795 795 795 796 797 798 798 798 799 799 799 799 799
756 759 762 764 769 774 776 782 792 787 773 770 776 776 772 774 774 772 775 783 786 781 780 783 785 784 783 783 781 781 779 776 776 780 781 782 782 782 782 783 783 784 785 785 785 786 785 786 786 786 786 787 787 787 789 790 791 791 791 792 793 793 793 794 793 793 793 793 794 794 794 794 794 794 794 795 796 796 797 798 798 798 798 798 799 799
752 757 761 764 768 773 778 782 783 778 775 779 783 781 778 780 781 779 782 790 793 788 785 786 786 785 786 785 782 781 779 777 780 783 784 783 783 784 784 784 784 784 786 787 787 788 789 790 789 788 788 788 788 789 789 790 791 791 791 792 792 792 793 793 793 793 793 793 793 794 794 794 794 794 794 795 795 796 796 796 797 797 797 797 797 797
746 752 758 765 769 771 775 782 785 785 789 790 788 785 782 781 781 780 783 791 795 791 788 788 788 788 788 786 785 784 782 783 789 791 788 786 785 784 784 785 786 785 785 786 787 788 790 790 790 789 789 789 789 789 789 790 790 790 791 792 792 792 792 792 792 793 793 793 793 793 793 793 793 793 794 794 794 795 795 795 795 796 796 796 796 796
747 752 755 761 768 771 777 786 789 789 794 798 794 787 783 783 780 778 785 797 800 795 791 790 789 789 789 788 788 787 788 794 798 795 790 788 788 787 787 787 787 787 787 787 787 788 789 790 789 789 789 789 789 789 789 789 789 789 790 791 792 792 792 792 792 792 791 792 792 792 792 792 792 792 793 793 793 794 794 794 794 794 794 795 795 795
758 762 762 765 770 771 776 783 786 791 799 802 798 791 786 784 779 782 796 806 802 796 794 793 791 791 790 790 791 791 794 799 799 795 791 790 789 789 789 788 788 787 788 788 788 789 789 789 789 789 789 789 789 789 789 788 788 788 789 790 790 791 791 791 791 791 790 790 790 790 791 791 791 791 791 792 792 792 792 793 793 793 793 793 794 793
768 771 772 775 776 776 777 780 787 800 806 802 798 794 787 783 785 796 808 809 801 797 796 793 793 793 791 791 793 794 796 797 795 794 792 791 790 790 790 790 789 788 787 787 788 788 788 789 789 788 789 788 788 788 787 787 786 787 787 788 788 789 789 790 790 790 790 789 789 789 789 789 790 790 790 790 790 790 791 791 791 791 792 792 792 792
777 780 779 779 780 781 783 785 792 805 809 803 798 793 788 793 803 809 808 803 799 798 796 793 794 794 792 793 794 795 795 794 793 793 792 792 792 791 790 790 790 789 788 787 786 786 786 786 786 787 787 787 787 786 786 786 786 785 785 786 786 786 787 787 788 788 788 788 788 788 788 788 788 788 788 788 788 788 789 789 789 790 790 790 790 790
782 784 784 784 784 784 787 792 799 806 805 801 800 797 795 803 808 804 800 798 798 797 797 797 796 796 796 797 796 796 796 795 794 794 793 793 793 792 791 791 790 790 789 788 787 786 785 785 784 784 784 784 785 784 784 784 784 783 783 783 783 784 785 785 785 786 785 786 786 786 786 786 786 786 786 786 786 787 787 787 787 787 788 789 789 788
788 790 791 792 790 792 798 802 803 803 799 798 801 802 800 800 799 797 799 801 801 801 802 801 800 799 799 798 798 797 797 796 795 795 794 794 794 793 793 792 790 790 790 789 788 787 786 785 784 782 782 782 782 782 782 782 781 781 781 781 782 782 782 782 783 783 783 783 784 784 784 785 785 785 785 785 785 785 784 785 785 785 786 787 787 787
796 793 793 793 791 793 799 799 797 797 797 797 798 799 797 797 798 800 803 804 804 805 804 803 802 801 800 799 799 799 798 797 797 797 796 796 796 795 794 793 791 791 790 789 788 787 785 784 783 782 781 780 780 780 780 780 780 779 779 780 780 781 780 780 781 781 781 781 781 782 782 782 782 783 782 782 783 782 782 782 782 782 783 784 785 785
796 790 790 792 791 791 793 793 794 798 799 797 796 796 797 800 802 802 803 804 805 805 804 804 804 802 801 801 800 800 800 799 799 798 797 796 795 795 794 793 791 791 789 789 788 787 785 784 782 781 781 780 780 779 779 779 779 778 778 778 778 779 778 778 778 778 779 779 779 779 779 779 780 780 780 780 780 780 779 779 778 779 781 782 783 783
794 791 791 794 795 796 798 799 801 803 801 798 799 800 800 802 803 803 804 805 805 804 804 804 803 802 802 801 801 801 800 799 798 798 796 795 794 793 793 792 791 790 789 788 787 787 786 784 782 781 780 780 779 778 778 778 777 777 777 777 776 777 776 776 776 776 777 777 777 777 777 777 777 777 778 778 778 777 777 777 777 778 779 780 781 782
794 793 797 801 801 801 802 803 803 802 800 800 802 804 804 804 804 803 803 803 803 803 804 803 803 803 802 801 800 800 799 798 797 796 795 794 793 792 791 791 790 788 787 787 786 786 785 783 782 781 779 779 778 777 777 776 775 775 775 774 774 774 774 774 774 774 774 774 774 775 775 775 775 775 775 775 775 775 776 776 776 777 778 778 779 780
795 797 802 804 804 803 804 804 804 804 803 803 804 805 805 804 804 803 803 803 803 803 803 802 802 802 801 800 800 798 798 797 795 794 793 792 791 790 789 789 788 787 786 785 785 784 783 782 781 780 778 777 776 776 775 774 774 773 773 772 772 772 771 771 771 771 771 771 771 772 772 773 773 773 772 772 773 774 775 775 775 776 776 777 777 778
798 804 806 807 810 812 811 810 810 811 811 809 807 806 806 805 805 804 804 803 803 803 802 802 801 801 800 800 799 798 797 796 794 793 791 790 789 788 788 787 787 786 785 784 783 782 781 780 779 778 777 776 775 774 773 773 772 771 771 770 770 769 768 768 768 768 768 768 768 768 769 769 770 770 770 770 770 772 773 773 774 775 775 776 776 777
803 807 808 812 816 816 812 811 811 813 813 811 808 807 807 806 806 806 805 804 804 803 802 802 802 801 800 799 798 798 797 795 793 792 790 789 788 787 786 786 786 785 784 783 782 781 779 778 777 776 775 774 773 773 772 771 770 769 768 768 767 767 766 766 766 765 765 765 765 765 765 766 766 766 766 767 767 769 770 771 773 774 775 776 776 777